• In Belarus
  • List of Countries
  • For 7 days
  • Water Temperature
  • Satellite Maps
  • Weather Map
  • Weather Widgets
  • user-avatar
    Login

    Hourly Weather Samos

    Today, 19 January, Friday

    Time Temperature Precipitation Wind Pressure Humidity
    00:00 -2°C° 0 mm 6 mps 719 mmHg 73%
    01:00 -2°C° 0 mm 6 mps 720 mmHg 71%
    02:00 -1°C° 0 mm 5 mps 719 mmHg 69%
    03:00 -1°C° 0 mm 5 mps 719 mmHg 69%
    04:00 -2°C° 0 mm 5 mps 719 mmHg 68%
    05:00 -2°C° 0 mm 5 mps 720 mmHg 68%
    06:00 -2°C° 0 mm 4 mps 720 mmHg 67%
    07:00 -2°C° 0 mm 4 mps 720 mmHg 66%
    08:00 -1°C° 0 mm 3 mps 721 mmHg 66%
    09:00 +1°C° 0 mm 3 mps 721 mmHg 57%
    10:00 +3°C° 0 mm 3 mps 721 mmHg 49%
    11:00 +6°C° 0 mm 2 mps 721 mmHg 40%
    12:00 +7°C° 0 mm 2 mps 721 mmHg 38%
    13:00 +8°C° 0 mm 2 mps 721 mmHg 36%
    14:00 +9°C° 0 mm 2 mps 721 mmHg 34%
    15:00 +8°C° 0 mm 2 mps 721 mmHg 38%
    16:00 +7°C° 0 mm 2 mps 721 mmHg 43%
    17:00 +6°C° 0 mm 2 mps 721 mmHg 47%
    18:00 +5°C° 0 mm 2 mps 721 mmHg 48%
    19:00 +4°C° 0 mm 2 mps 721 mmHg 49%
    20:00 +3°C° 0 mm 2 mps 721 mmHg 50%
    21:00 +2°C° 0 mm 3 mps 721 mmHg 51%
    22:00 +2°C° 0 mm 3 mps 721 mmHg 52%
    23:00 +1°C° 0 mm 4 mps 721 mmHg 53%

    Tomorrow, 20 January, Saturday

    Time Temperature Precipitation Wind Pressure Humidity
    00:00 +1°C° 0 mm 4 mps 721 mmHg 52%
    01:00 +1°C° 0 mm 4 mps 721 mmHg 51%
    02:00 0°C° 0 mm 5 mps 721 mmHg 50%
    03:00 +1°C° 0 mm 5 mps 721 mmHg 51%
    04:00 +1°C° 0 mm 5 mps 721 mmHg 52%
    05:00 +2°C° 0 mm 5 mps 721 mmHg 53%
    06:00 +2°C° 0 mm 5 mps 721 mmHg 59%
    07:00 +3°C° 0 mm 5 mps 721 mmHg 65%
    08:00 +5°C° 0 mm 5 mps 721 mmHg 71%
    09:00 +4°C° 0.1 mm 6 mps 721 mmHg 76%
    10:00 +5°C° 0.1 mm 6 mps 721 mmHg 81%
    11:00 +6°C° 0.1 mm 7 mps 721 mmHg 86%
    12:00 +8°C° 0.2 mm 7 mps 721 mmHg 87%
    13:00 +7°C° 0.2 mm 8 mps 721 mmHg 88%
    14:00 +7°C° 0.2 mm 8 mps 720 mmHg 90%
    15:00 +7°C° 0.2 mm 8 mps 720 mmHg 90%
    16:00 +8°C° 0.2 mm 7 mps 720 mmHg 89%
    17:00 +8°C° 0.2 mm 7 mps 720 mmHg 89%
    18:00 +6°C° 0.1 mm 7 mps 720 mmHg 90%
    19:00 +6°C° 0.1 mm 7 mps 720 mmHg 90%
    20:00 +5°C° 0.1 mm 6 mps 720 mmHg 90%
    21:00 +5°C° 0.1 mm 6 mps 720 mmHg 91%
    22:00 +5°C° 0.1 mm 6 mps 720 mmHg 92%
    23:00 +5°C° 0.1 mm 6 mps 720 mmHg 93%

    Day after tomorrow, 21 January, Sunday

    Time Temperature Precipitation Wind Pressure Humidity
    00:00 +5°C° 0 mm 6 mps 720 mmHg 93%
    01:00 +7°C° 0 mm 6 mps 720 mmHg 93%
    02:00 +7°C° 0 mm 5 mps 720 mmHg 93%
    03:00 +7°C° 0.1 mm 6 mps 720 mmHg 93%
    04:00 +7°C° 0.1 mm 6 mps 719 mmHg 92%
    05:00 +7°C° 0.1 mm 6 mps 719 mmHg 92%
    06:00 +7°C° 0.1 mm 6 mps 719 mmHg 92%
    07:00 +7°C° 0.1 mm 6 mps 719 mmHg 92%
    08:00 +7°C° 0.1 mm 6 mps 719 mmHg 92%
    09:00 +8°C° 0.2 mm 7 mps 719 mmHg 87%
    10:00 +10°C° 0.2 mm 7 mps 718 mmHg 82%
    11:00 +11°C° 0.2 mm 8 mps 718 mmHg 76%
    12:00 +11°C° 0.3 mm 8 mps 718 mmHg 76%
    13:00 +11°C° 0.3 mm 8 mps 717 mmHg 76%
    14:00 +11°C° 0.3 mm 9 mps 716 mmHg 75%
    15:00 +11°C° 0.5 mm 9 mps 716 mmHg 79%
    16:00 +10°C° 0.5 mm 9 mps 715 mmHg 82%
    17:00 +9°C° 0.5 mm 8 mps 715 mmHg 85%
    18:00 +7°C° 0.6 mm 8 mps 715 mmHg 88%
    19:00 +7°C° 0.6 mm 8 mps 715 mmHg 90%
    20:00 +6°C° 0.6 mm 8 mps 714 mmHg 92%
    21:00 +6°C° 1 mm 8 mps 714 mmHg 92%
    22:00 +6°C° 1 mm 7 mps 714 mmHg 93%
    23:00 +6°C° 1 mm 7 mps 714 mmHg 93%

    22 January, Monday

    Time Temperature Precipitation Wind Pressure Humidity
    00:00 +7°C° 0.7 mm 6 mps 713 mmHg 93%
    01:00 +7°C° 0.7 mm 6 mps 713 mmHg 93%
    02:00 +7°C° 0.7 mm 5 mps 712 mmHg 92%
    03:00 +7°C° 0.8 mm 6 mps 712 mmHg 92%
    04:00 +7°C° 0.8 mm 6 mps 712 mmHg 93%
    05:00 +6°C° 0.8 mm 7 mps 712 mmHg 93%
    06:00 +5°C° 0.1 mm 6 mps 712 mmHg 93%
    07:00 +5°C° 0.1 mm 6 mps 713 mmHg 92%
    08:00 +5°C° 0.1 mm 6 mps 713 mmHg 92%
    09:00 +7°C° 0 mm 6 mps 714 mmHg 87%
    10:00 +6°C° 0 mm 7 mps 714 mmHg 81%
    11:00 +8°C° 0 mm 7 mps 715 mmHg 75%
    12:00 +8°C° 0 mm 7 mps 715 mmHg 69%
    13:00 +7°C° 0 mm 8 mps 715 mmHg 63%
    14:00 +7°C° 0 mm 8 mps 716 mmHg 57%
    15:00 +6°C° 0 mm 8 mps 716 mmHg 58%
    16:00 +5°C° 0 mm 8 mps 717 mmHg 59%
    17:00 +4°C° 0 mm 8 mps 717 mmHg 60%
    18:00 +2°C° 0 mm 8 mps 718 mmHg 64%
    19:00 +1°C° 0 mm 8 mps 719 mmHg 67%
    20:00 0°C° 0 mm 8 mps 719 mmHg 70%
    21:00 -1°C° 0 mm 8 mps 720 mmHg 71%
    22:00 -1°C° 0 mm 8 mps 720 mmHg 71%
    23:00 -2°C° 0 mm 7 mps 720 mmHg 71%

    23 January, Tuesday

    Time Temperature Precipitation Wind Pressure Humidity
    00:00 -2°C° 0 mm 7 mps 721 mmHg 73%
    01:00 -2°C° 0 mm 7 mps 721 mmHg 74%
    02:00 -3°C° 0 mm 6 mps 721 mmHg 76%
    03:00 -3°C° 0 mm 6 mps 721 mmHg 78%
    04:00 -3°C° 0 mm 6 mps 721 mmHg 79%
    05:00 -4°C° 0 mm 6 mps 721 mmHg 81%
    06:00 -4°C° 0 mm 6 mps 722 mmHg 81%
    07:00 -4°C° 0 mm 5 mps 722 mmHg 80%
    08:00 -4°C° 0 mm 5 mps 722 mmHg 80%
    09:00 -1°C° 0 mm 5 mps 723 mmHg 71%
    10:00 +1°C° 0 mm 5 mps 723 mmHg 62%
    11:00 +3°C° 0 mm 5 mps 723 mmHg 53%
    12:00 +3°C° 0 mm 5 mps 723 mmHg 49%
    13:00 +5°C° 0 mm 5 mps 723 mmHg 45%
    14:00 +6°C° 0 mm 5 mps 723 mmHg 42%
    15:00 +5°C° 0 mm 5 mps 723 mmHg 45%
    16:00 +3°C° 0 mm 5 mps 723 mmHg 49%
    17:00 +2°C° 0 mm 5 mps 723 mmHg 53%
    18:00 +1°C° 0 mm 5 mps 723 mmHg 55%
    19:00 0°C° 0 mm 5 mps 723 mmHg 56%
    20:00 0°C° 0 mm 5 mps 723 mmHg 58%
    21:00 -1°C° 0 mm 5 mps 723 mmHg 59%
    22:00 -1°C° 0 mm 5 mps 724 mmHg 61%
    23:00 -1°C° 0 mm 5 mps 724 mmHg 62%

    24 January, Wednesday

    Time Temperature Precipitation Wind Pressure Humidity
    00:00 -2°C° 0 mm 5 mps 724 mmHg 63%
    01:00 -2°C° 0 mm 5 mps 724 mmHg 63%
    02:00 -2°C° 0 mm 5 mps 724 mmHg 64%
    03:00 -3°C° 0 mm 6 mps 724 mmHg 65%
    04:00 -3°C° 0 mm 6 mps 724 mmHg 65%
    05:00 -4°C° 0 mm 6 mps 724 mmHg 66%
    06:00 -4°C° 0 mm 6 mps 724 mmHg 66%
    07:00 -4°C° 0 mm 6 mps 724 mmHg 66%
    08:00 -3°C° 0 mm 6 mps 724 mmHg 66%
    09:00 -2°C° 0 mm 6 mps 724 mmHg 59%
    10:00 +1°C° 0 mm 6 mps 725 mmHg 52%
    11:00 +3°C° 0 mm 6 mps 725 mmHg 45%
    12:00 +4°C° 0 mm 7 mps 725 mmHg 44%
    13:00 +4°C° 0 mm 7 mps 724 mmHg 43%
    14:00 +5°C° 0 mm 8 mps 724 mmHg 43%
    15:00 +4°C° 0 mm 8 mps 724 mmHg 47%
    16:00 +2°C° 0 mm 8 mps 724 mmHg 51%
    17:00 +1°C° 0 mm 8 mps 724 mmHg 55%
    18:00 0°C° 0 mm 8 mps 724 mmHg 59%
    19:00 -1°C° 0 mm 8 mps 725 mmHg 62%
    20:00 -2°C° 0 mm 8 mps 725 mmHg 66%
    21:00 -4°C° 0 mm 8 mps 725 mmHg 69%
    22:00 -4°C° 0 mm 8 mps 725 mmHg 73%
    23:00 -4°C° 0 mm 8 mps 725 mmHg 76%
    Show more